Voltar ao catálogo

SL-12 R/B(2)

AtivoHEO
NORAD 26855·ROCKET BODY·🇷🇺 Russia

Lançado Jun 16, 2001 de Baikonur Cosmodrome

Loading…

Próximas Passagens (próximas 24 horas)

TLE

EnvelhecendoSource: Space-Track

Época: Aug 31, 2026, 05:47 UTC

1 26855U 01025C   26243.24110485 -.00000081  00000-0  00000+0 0  9995
2 26855  15.2002  95.8247 4988976 283.5879 312.2461  1.84790175170162

Acompanhe SL-12 R/B(2) em tempo real com AllMySat

Download on the App Store